Location: Carrer del Canonge
(41.4901°N, 2.2931°E)
Time: 03:48:52
(UTC+00:00)

Cosmos 494 Rocket - Pass Details

Date: 26 January 2021
Orbit: 742 x 771 km, 74.1° (Epoch: 03 March)

Event Time Altitude Azimuth Distance (km) Brightness Sun altitude
Rises 19:56:45 0° 339° (NNW) 3,200 7.5 -33.2°
Reaches altitude 10° 19:59:07 10° 338° (NNW) 2,276 6.7 -33.6°
Enters shadow 20:00:15 17° 337° (NNW) 1,842 6.2 -33.8°
